Regional Weather Roundup
Issued by NWS

Current Version | Previous Version | Text Only | Print | Product List | Glossary On
Versions: 1 2 3 4 5 6 7 8 9 10 11 12 13 14 15 16 17 18 19 20 21 22 23 24 25 26 27
000
ASUS44 KBMX 061310
RWRAL

ALABAMA REGIONAL WEATHER ROUNDUP
NATIONAL WEATHER SERVICE BIRMINGHAM AL
700 AM CST TUE DEC 06 2016

NOTE: "FAIR" INDICATES FEW OR NO CLOUDS BELOW 12,000 FEET
WITH NO SIGNIFICANT WEATHER AND/OR OBSTRUCTIONS TO VISIBILITY.

THE REMARK "TC" DENOTES TEMPERATURE IN DEGREES CELSIUS.

ALZ001>011-014-016>018-020-061400-
NORTH ALABAMA

CITY           SKY/WX    TMP DP  RH WIND       PRES   REMARKS
MUSCLE SHOALS  LGT RAIN  56  53  90 SW6       29.64R
HUNTSVILLE     LGT RAIN  56  55  97 SE6       29.60F
DECATUR        RAIN      54  54 100 SE7       29.62R FOG
HALEYVILLE     CLOUDY    56  55  97 SW8       29.65R
GADSDEN        HVY RAIN  55  54  96 CALM      29.66S FOG
$$

ALZ012-013-022-023-030>036-040>044-061400-
WEST CENTRAL ALABAMA

CITY           SKY/WX    TMP DP  RH WIND       PRES   REMARKS
TUSCALOOSA     CLOUDY    59  58  96 SW7       29.67R
$$

ALZ015-024>027-033>036-040>044-061400-
CENTRAL ALABAMA

CITY           SKY/WX    TMP DP  RH WIND       PRES   REMARKS
BIRMINGHAM     CLOUDY    60  60 100 SW10      29.67R
MONTGOMERY     CLOUDY    60  56  86 SW5       29.70R FOG
SHELBY CO ARPT CLOUDY    61  61 100 S7        29.67R FOG
MAXWELL AFB    CLOUDY    57  57 100 CALM      29.69R FOG
GREENVILLE     MOCLDY    65  61  87 SW13G20   29.71R
$$

ALZ019-021-028-029-037-038-045>048-061400-
EAST CENTRAL ALABAMA

CITY           SKY/WX    TMP DP  RH WIND       PRES   REMARKS
ANNISTON       CLOUDY    57  54  89 NE8       29.65F
ALEXANDER CITY RAIN      60  59  97 CALM      29.68S
AUBURN         LGT RAIN  57  57 100 VRB3      29.71R VSB 1/2
$$

ALZ051>064-061400-
SOUTHWEST ALABAMA

CITY           SKY/WX    TMP DP  RH WIND       PRES   REMARKS
MOBILE         MOCLDY    59  56  89 W9        29.81R FOG
BROOKLEY FIELD MOCLDY    61  57  87 SW7       29.81R
EVERGREEN      CLEAR     65  62  90 W12       29.74R
$$

ALZ049-050-065>069-061400-
SOUTHEAST ALABAMA

CITY           SKY/WX    TMP DP  RH WIND       PRES   REMARKS
DOTHAN         MOCLDY    70  70 100 SW12G20   29.74S
OZARK          PTCLDY    68  68 100 SW9       29.73R
TROY           LGT RAIN  66  66 100 SW13G24   29.72R
EUFAULA        CLOUDY    63  62  97 VRB3      29.68R
$$




USA.gov is the U.S. government's official web portal to all federal, state and local government web resources and services.